Weather History for Oklahoma City, OK

Change the Weather History Date:

Tuesday, March 19, 2013

  Actual Average Record
Temperature  
Mean Temperature 49 °F 53 °F  
Max Temperature 61 °F 64 °F 97 °F (1907)
Min Temperature 37 °F 42 °F 10 °F (1923)
Degree Days  
Heating Degree Days 16 12  
Month to date heating degree days 293 281  
Since 1 July heating degree days 2862 3031  
Cooling Degree Days 0 0  
Month to date cooling degree days 0 0  
Year to date cooling degree days 2 1  
Moisture  
Dew Point 28 °F    
Average Humidity 51    
Maximum Humidity 76    
Minimum Humidity 25    
Precipitation  
Precipitation 0.00 in 0.11 in 3.02 in (2012)
Month to date precipitation 0.31 1.81  
Year to date precipitation 4.17 4.78  
Snow  
Snow 0.00 in 0.00 in 11.30 in (1924)
Month to date snowfall 0.0 0.7  
Since 1 July snowfall 7.7 7.4  
Snow Depth -    
Sea Level Pressure  
Sea Level Pressure 30.09 in    
Wind  
Wind Speed 8 mph (East)    
Max Wind Speed 22 mph    
Max Gust Speed 25 mph    
Visibility 10 miles    
Events      
T = Trace of Precipitation, MM = Missing Value Source: NWS Daily Summary

Daily Weather History Graph

Daily Weather History Graph

Search for Another Location

Airport:

Trip Planner

Search our weather history database for the weather conditions in past years. The results will help you decide how hot, cold, wet, or windy it might be!

Date:

Astronomy

Mar. 19, 2013 Rise Set
Actual Time 7:35 AM CDT 7:41 PM CDT
Civil Twilight 7:09 AM CDT 8:06 PM CDT
Nautical Twilight 6:40 AM CDT 8:36 PM CDT
Astronomical Twilight 6:10 AM CDT 9:06 PM CDT
Moon 12:38 PM CDT (3/19) 2:17 AM CDT (3/19)
Length of Visible Light 12h 57m
Length of Day
12h 06m
Waxing Crescent, 50% of the Moon is Illuminated
Mar 19
Waxing Crescent
Mar 19
First Quarter
Mar 27
Full
Apr 2
Last Quarter
Apr 10
New

Hourly Weather History & Observations

Time (CDT) Temp. Windchill Dew Point Humidity Pressure Visibility Wind Dir Wind Speed Gust Speed Precip Events Conditions
12:52 AM 44.6 °F 38.1 °F 24.8 °F 46% 29.98 in 10.0 mi ENE 13.8 mph - N/A   Clear
1:52 AM 44.1 °F 39.0 °F 23.0 °F 43% 30.00 in 10.0 mi ENE 9.2 mph - N/A   Clear
2:52 AM 43.0 °F 38.2 °F 21.9 °F 43% 30.01 in 10.0 mi East 8.1 mph - N/A   Clear
3:52 AM 39.9 °F 37.8 °F 23.0 °F 51% 30.02 in 10.0 mi South 3.5 mph - N/A   Clear
4:52 AM 39.9 °F 35.8 °F 25.0 °F 55% 30.02 in 10.0 mi ESE 5.8 mph - N/A   Clear
5:52 AM 37.0 °F 32.4 °F 28.9 °F 73% 30.04 in 10.0 mi SE 5.8 mph - N/A   Clear
6:52 AM 37.9 °F 32.7 °F 30.9 °F 76% 30.06 in 10.0 mi ESE 6.9 mph - N/A   Partly Cloudy
7:52 AM 39.0 °F 35.7 °F 32.0 °F 76% 30.09 in 10.0 mi SE 4.6 mph - N/A   Scattered Clouds
8:52 AM 46.9 °F - 36.0 °F 66% 30.10 in 10.0 mi ESE 6.9 mph - N/A   Scattered Clouds
9:52 AM 52.0 °F - 30.9 °F 45% 30.12 in 10.0 mi ESE 10.4 mph - N/A   Mostly Cloudy
10:52 AM 55.0 °F - 30.9 °F 40% 30.13 in 10.0 mi SE 12.7 mph - N/A   Mostly Cloudy
11:52 AM 57.0 °F - 30.0 °F 36% 30.11 in 10.0 mi SSE 19.6 mph 24.2 mph N/A   Overcast
12:52 PM 59.0 °F - 32.0 °F 36% 30.10 in 10.0 mi South 17.3 mph - N/A   Overcast
1:52 PM 60.1 °F - 30.9 °F 33% 30.09 in 10.0 mi SSE 12.7 mph - N/A   Overcast
2:52 PM 59.0 °F - 27.0 °F 29% 30.09 in 10.0 mi SSE 9.2 mph - N/A   Overcast
3:52 PM 59.0 °F - 25.0 °F 27% 30.09 in 10.0 mi Variable 3.5 mph - N/A   Overcast
4:52 PM 60.1 °F - 25.0 °F 26% 30.08 in 10.0 mi Calm Calm - N/A   Overcast
5:52 PM 60.1 °F - 24.1 °F 25% 30.08 in 10.0 mi NE 3.5 mph - N/A   Overcast
6:52 PM 59.0 °F - 24.1 °F 26% 30.11 in 10.0 mi North 4.6 mph - N/A   Overcast
7:52 PM 55.9 °F - 28.0 °F 34% 30.13 in 10.0 mi North 5.8 mph - N/A   Overcast
8:52 PM 55.9 °F - 33.1 °F 42% 30.14 in 10.0 mi North 4.6 mph - N/A   Overcast
9:52 PM 53.1 °F - 32.0 °F 45% 30.16 in 10.0 mi NE 3.5 mph - N/A   Mostly Cloudy
10:52 PM 51.1 °F - 32.0 °F 48% 30.19 in 10.0 mi NNE 9.2 mph - N/A   Scattered Clouds
11:52 PM 46.9 °F - 27.0 °F 46% 30.22 in 10.0 mi ENE 15.0 mph - N/A   Mostly Cloudy